Location: Vancouver
(49.2500°N, 123.1333°W)
Time: 04:25:42
(UTC-07:00)

Daily predictions for brighter satellites

Satellite Brightness Start Highest point End
(mag) Time Altitude Azimuth Time Altitude Azimuth Time Altitude Azimuth
Cosmos 1842 Rocket 4.4 00:00:18 10° N 00:04:33 40° ENE 00:06:24 27° ESE
H-2A R/B 3.8 00:03:03 16° SW 00:05:40 26° W 00:09:28 10° NW
Cosmos 1378 3.7 00:10:47 37° ESE 00:11:27 42° E 00:15:01 10° NNE
Cosmos 2251 Rocket 3.5 00:08:50 30° S 00:11:32 70° ESE 00:16:55 10° NNE
deb Kosmos-1763 4.1 00:13:28 46° S 00:14:27 67° ESE 00:18:18 10° NNE
CZ-4B R/B 3.9 00:14:07 10° E 00:15:24 12° ENE 00:16:42 10° NE
Cosmos 2322 4.0 00:11:03 10° NNW 00:16:40 60° ENE 00:20:03 24° SE
Cosmos 972 4.5 00:14:08 10° NNW 00:19:41 86° WSW 00:21:57 34° SSE
Cosmos 2098 Rocket 3.5 00:16:02 10° N 00:20:39 82° E 00:23:15 33° SSE
Cosmos 1953 3.7 00:17:18 10° NNW 00:20:55 30° W 00:22:36 22° SW
Cosmos 2360 Rocket 2.2 00:22:11 10° NNW 00:27:53 81° ENE 00:30:49 30° SE
Cosmos 1980 Rocket 4.1 00:24:35 10° WNW 00:28:15 18° W 00:31:08 12° SW
CZ-4B R/B 4.4 00:26:24 10° N 00:31:13 45° WNW 00:35:06 16° SW
Cosmos 1953 Rocket 4.4 00:28:52 23° SW 00:31:17 45° WNW 00:35:35 10° N
USA 234 3.6 00:26:31 10° ESE 00:33:00 67° NNE 00:39:30 10° NW
COSMOS 2428 3.4 00:30:05 10° NNW 00:35:41 50° NE 00:39:42 19° ESE
ATLAS 2AS CENTAUR R/B 3.5 00:30:23 10° NW 00:38:28 60° NE 00:46:04 10° ESE
NOSS 3-1 (A) 4.2 00:31:18 10° NW 00:38:37 56° WSW 00:43:02 28° S
Cosmos 1689 Rocket 4.3 00:38:44 17° E 00:39:35 19° ENE 00:41:54 10° NNE
Cosmos 494 Rocket 4.2 00:36:58 23° SW 00:40:08 66° WNW 00:45:19 10° NNE
Cosmos 2322 Rocket 3.1 00:35:36 10° NW 00:40:48 37° WSW 00:43:04 27° SSW
Cosmos 1470 4.1 00:38:22 10° NNW 00:41:55 31° W 00:43:10 25° SW
Meteor 2-5 Rocket 3.8 00:39:36 31° S 00:42:39 90° ESE 00:48:38 10° NNE
ALOS 2 2.6 00:42:40 42° S 00:44:06 74° WSW 00:48:30 10° NNW
USA 32 4.0 00:42:18 34° SSW 00:44:39 82° W 00:49:57 10° N
Lacrosse 5 rocket 2.3 00:41:53 10° WNW 00:46:05 34° SW 00:46:33 33° SW
Meteor 1-16 Rocket 4.3 00:40:58 10° NNW 00:46:19 65° W 00:48:43 33° SSW
Cosmos-2242 4.1 00:45:42 10° NNW 00:49:36 34° W 00:51:02 27° SW
ARGOS Delta rocket 4.1 00:44:42 10° NNE 00:50:03 90° WNW 00:52:36 33° SSW
Cosmos 1707 3.4 00:50:03 33° SW 00:51:19 47° WNW 00:55:05 10° N
Cosmos 1339 Rocket 4.5 00:51:32 31° S 00:54:47 89° E 01:01:12 10° N
CZ-2C R/B 2.7 00:49:15 10° NNE 00:54:54 90° WNW 00:57:33 33° SSW
Cosmos 1727 Rocket 4.0 00:54:18 31° SSW 00:57:31 84° W 01:03:50 10° N
Cosmos 2084 Rocket 3.1 00:56:39 50° SSW 00:57:34 72° SE 01:01:29 10° NE
Meteor 2-15 4.4 00:56:40 31° SSW 00:59:45 84° W 01:05:51 10° N
SME Rocket 4.5 00:58:18 24° SW 00:59:46 29° WSW 01:03:20 10° NW
Cosmos 1605 Rocket 4.4 00:54:33 10° NNW 01:00:24 50° W 01:03:25 28° SSW
Okean 3 Rocket 4.2 01:02:07 34° SE 01:03:30 46° E 01:07:52 10° NNE
Cosmos 2333 Rocket 3.2 01:02:10 10° NNW 01:07:39 44° NE 01:12:36 12° ESE
Landsat 5 4.1 01:05:58 31° SE 01:07:55 56° ENE 01:12:21 10° N
Cosmos 1674 3.9 01:09:02 28° ESE 01:09:50 31° E 01:13:17 10° NNE
Cosmos 2219 Rocket 2.8 01:04:39 10° NNW 01:10:15 53° NE 01:14:31 17° SE
Cosmos 1726 4.2 01:08:14 10° NNE 01:11:14 22° ENE 01:13:00 16° ESE
ISS -4.0 01:07:59 10° WNW 01:11:17 88° SSW 01:11:37 70° ESE
Cosmos 2221 2.5 01:07:08 10° N 01:11:27 79° E 01:12:47 44° SSE
Meteor 1-24 Rocket 3.9 01:11:18 32° SSW 01:14:18 82° WNW 01:20:23 10° N
Cosmos 2297 Rocket 4.4 01:13:43 10° ESE 01:15:12 11° E 01:16:40 10° E
Cosmos 2173 Rocket 3.9 01:09:51 10° N 01:16:00 90° ENE 01:18:59 32° S
Cosmos 407 Rocket 4.5 01:21:32 27° SE 01:23:18 34° ESE 01:27:54 10° NE
Cosmos 1184 Rocket 3.1 01:25:01 51° ESE 01:25:15 53° E 01:28:30 10° NNE
Lacrosse 5 2.1 01:22:51 13° WSW 01:27:20 72° NNW 01:32:25 10° NE
Cosmos 1300 4.3 01:26:38 10° N 01:30:00 28° ENE 01:31:50 19° ESE
SeaSat 1 3.3 01:30:09 30° SW 01:31:19 34° WSW 01:35:49 10° NW
Cosmos 2237 Rocket 3.1 01:26:10 10° NNW 01:31:38 47° NE 01:37:01 10° SE
Cosmos 1992 Rocket 4.2 01:27:07 10° NNW 01:32:12 53° WSW 01:33:59 36° SSW
SL-16 R/B 4.1 01:30:19 10° WNW 01:33:24 15° W 01:35:08 13° WSW
SL-16 R/B 4.2 01:28:53 10° NNW 01:33:41 27° NE 01:38:27 10° ESE
Cosmos 1459 Rocket 4.1 01:29:41 10° NNW 01:36:00 66° W 01:39:11 31° SSW
Cosmos 1076 Rocket 3.6 01:35:08 42° SSE 01:36:28 69° E 01:40:49 10° NNE
CZ-2C R/B 4.4 01:36:13 22° SW 01:38:26 29° W 01:43:23 10° NNW
USA 267 3.2 01:32:41 10° ENE 01:39:16 85° SSE 01:44:54 15° SW
ERBS 3.5 01:43:15 29° ESE 01:43:15 29° ESE 01:45:44 10° ENE
Cosmos 1190 Rocket 4.3 01:42:01 34° S 01:44:09 57° ESE 01:49:22 10° NNE
In-Cosmos 22 4.3 01:43:09 31° SSW 01:45:44 64° WNW 01:51:18 10° N
CZ-4B R/B 1.6 01:47:41 48° WSW 01:47:42 48° W 01:50:48 10° NNW
Cosmos 2227 Rocket 3.5 01:50:03 20° SE 01:52:36 28° ESE 01:57:21 10° NE
CZ-4C R/B 4.4 01:56:10 26° WSW 01:56:34 27° W 01:59:44 10° NW
Cosmos 1151 Rocket 4.2 01:53:35 10° N 01:57:38 37° ENE 02:00:26 18° SE
Cosmos 1328 Rocket 3.8 01:54:32 10° N 01:59:00 66° ENE 02:01:04 30° SSE
Cosmos 2016 Rocket 4.2 01:54:31 10° NNW 02:00:48 61° W 02:04:05 29° SSW
Cosmos 1802 Rocket 4.4 01:55:00 10° NNW 02:01:03 51° W 02:04:04 28° SSW
Helios 1A Rocket 4.2 01:57:58 10° NNE 02:01:46 32° E 02:03:27 24° SE
JB-3 4.3 02:03:11 10° NNE 02:07:09 85° E 02:08:28 42° S
H-2A R/B 2.5 02:03:34 10° NNE 02:07:52 89° ESE 02:09:34 37° SSW
Cosmos 1340 Rocket 3.4 02:07:31 33° WSW 02:08:46 45° WNW 02:12:36 10° N
Cosmos 2360 Rocket 3.8 02:07:26 10° WNW 02:11:11 18° W 02:12:34 17° WSW
Cosmos 1689 Rocket 3.6 02:11:32 25° W 02:11:32 25° W 02:14:05 10° NW
Cosmos 1455 4.5 02:09:02 10° NNE 02:12:03 21° ENE 02:15:04 10° ESE
Geosat 4.1 02:08:05 10° NNE 02:13:08 73° WNW 02:15:52 27° SW
Cosmos 2058 4.4 02:11:50 18° SE 02:13:58 28° E 02:17:32 10° NNE
USA 234 3.3 02:10:11 12° SSE 02:16:10 54° SW 02:22:34 10° WNW
Cosmos 1328 4.2 02:14:45 33° SSE 02:16:15 57° E 02:20:12 10° NNE
Meteor 1-21 Rocket 4.4 02:14:05 28° SSW 02:17:14 68° WNW 02:23:04 10° N
Cosmos 1242 Rocket 2.8 02:13:52 10° NNW 02:17:19 50° W 02:18:00 43° SW
Cosmos 2219 3.2 02:14:56 27° SW 02:18:02 75° WNW 02:23:42 10° NNE
SL-8 R/B 3.7 02:16:49 29° SW 02:19:06 59° SSE 02:23:48 10° E
COSMOS 2428 3.6 02:14:42 10° NW 02:19:46 33° WSW 02:21:42 26° SW
SL-16 R/B 3.9 02:17:49 10° SE 02:23:22 37° ENE 02:28:57 10° N
Cosmos 2228 Rocket 3.1 02:19:08 10° NNW 02:23:38 77° W 02:25:42 32° S
Aureole 2 Rocket 2.7 02:19:38 10° NNW 02:23:42 88° WSW 02:25:48 28° SSE
Cosmos 2082 4.5 02:21:41 23° SSE 02:24:41 41° ESE 02:29:56 10° NE
Cosmos 1140 Rocket 3.9 02:22:12 26° S 02:24:52 52° ESE 02:29:55 10° NNE
NOSS 2-1 (D) 4.2 02:25:03 29° SSE 02:26:11 36° ESE 02:30:11 10° NE
Cosmos 1626 3.8 02:24:19 17° SE 02:26:18 26° E 02:29:28 10° NNE
NOSS 2-1 (C) 4.2 02:25:12 29° SSE 02:26:20 35° ESE 02:30:19 10° NE
Cosmos 1356 Rocket 3.5 02:26:52 35° SW 02:28:23 61° WNW 02:32:28 10° N
ATLAS 2AS CENTAUR R/B 3.3 02:21:50 10° NW 02:29:25 47° WSW 02:34:08 22° S
NOSS 3-4 (A) 4.3 02:23:39 10° NW 02:30:30 64° NE 02:37:49 10° ESE
NOSS 3-4 (C) 4.3 02:23:45 10° NW 02:30:36 63° NE 02:37:54 10° ESE
Cosmos 2123 Rocket 4.2 02:30:30 25° SSW 02:34:06 60° WNW 02:40:14 10° N
Cosmos 1447 Rocket 4.5 02:35:51 24° S 02:39:49 90° E 02:46:11 10° N
NOSS 3-3 (A) 4.0 02:36:58 24° SSW 02:40:55 82° SE 02:47:46 10° NE
NOSS 3-3 (C) 4.0 02:37:05 24° SSW 02:41:02 81° SE 02:47:51 10° NE
Cosmos 2233 Rocket 4.1 02:34:46 10° NNW 02:41:03 67° W 02:45:06 23° S
Cosmos 1408 Rocket 4.4 02:41:28 25° SW 02:43:25 38° WNW 02:47:29 10° N
Meteor 1-27 4.3 02:39:34 10° NNW 02:45:25 88° WSW 02:49:55 18° S
Cosmos 1674 4.4 02:43:56 18° WSW 02:45:30 24° WNW 02:48:40 10° NNW
CZ-3A R/B 2.1 02:44:00 10° NW 02:45:35 32° NNE 02:49:03 10° E
PSLV R/B 3.9 02:43:44 29° S 02:45:39 67° WSW 02:49:43 10° NNW
Cosmos 1726 3.1 02:43:14 10° NNW 02:46:37 32° W 02:47:36 28° WSW
Lacrosse 4 Rocket 3.7 02:44:17 10° SE 02:46:40 16° ESE 02:49:14 10° ENE
Meteor 1-11 4.4 02:43:47 22° S 02:47:33 72° E 02:53:20 10° NNE
NOSS 0 Rocket 4.4 02:42:14 10° NW 02:48:03 43° WSW 02:51:36 22° SSW
NOSS 2-1 (E) 3.7 02:47:29 30° S 02:49:08 53° SE 02:53:34 10° NE
Cosmos 1500 Rocket 3.5 02:48:48 28° SSW 02:51:07 83° W 02:55:36 10° N
Cosmos 2333 Rocket 2.9 02:46:38 10° NW 02:51:51 37° WSW 02:54:33 24° SSW
Cosmos 1023 Rocket 4.5 02:49:30 25° SSW 02:52:34 86° ESE 02:57:48 10° NNE
Cosmos 2219 Rocket 3.1 02:49:03 10° NW 02:53:56 30° WSW 02:56:11 23° SW
Cosmos 1703 3.6 02:54:15 23° SSE 02:56:29 60° E 03:00:23 10° NNE
Cosmos 1072 Rocket 4.5 02:50:52 10° N 02:57:03 85° E 03:02:35 13° S
Cosmos 1980 4.1 02:52:02 10° NW 02:57:23 43° WSW 03:00:43 21° SSW
Cosmos 2297 Rocket 2.3 02:54:32 23° S 02:58:08 67° ESE 03:03:46 10° NNE
CBERS-1 4.3 02:57:33 10° NNE 03:02:39 63° ESE 03:06:25 18° S
Cosmos 1954 Rocket 4.2 03:01:40 22° SW 03:05:01 65° WNW 03:10:15 10° NNE
Cosmos 407 Rocket 4.4 03:01:44 17° WSW 03:05:14 39° WNW 03:10:04 10° NNE
NPP 3.8 02:59:58 10° NNE 03:05:23 72° ESE 03:09:23 18° S
Cosmos 1570 Rocket 4.0 03:00:05 10° NNW 03:05:26 69° WSW 03:10:08 13° S
Cosmos 1805 Rocket 4.4 03:02:08 15° SSE 03:05:34 46° E 03:09:48 10° NNE
Cosmos 1300 4.0 03:02:26 10° NNW 03:05:38 25° W 03:06:50 22° WSW
Cosmos 1515 Rocket 4.4 03:03:29 10° NNW 03:07:31 35° W 03:09:33 23° SW
SL-14 R/B 4.1 03:05:38 24° SW 03:07:38 41° WNW 03:11:31 10° N
ARIANE 5 R/B 3.8 03:04:26 10° NNE 03:09:04 34° E 03:13:37 10° SSE
Lacrosse 5 3.4 03:06:16 10° WNW 03:10:57 36° N 03:15:39 10° ENE
Cosmos 1743 Rocket 4.4 03:11:07 21° SW 03:13:34 38° WNW 03:17:44 10° N
Cosmos 2237 Rocket 2.9 03:10:32 10° NW 03:15:33 34° WSW 03:18:47 19° SSW
Resurs 1-4 Rocket 3.0 03:10:48 10° NNE 03:15:53 43° E 03:20:55 10° S
Cosmos 2151 3.2 03:13:53 23° SSW 03:16:19 56° WNW 03:20:30 10° N
Cosmos 1464 Rocket 3.9 03:10:27 10° NNW 03:16:37 77° W 03:22:14 13° S
SL-16 R/B 2.2 03:12:40 10° NNW 03:18:21 70° WSW 03:23:59 10° SSE
ERBS 3.2 03:16:32 14° W 03:19:16 44° NNW 03:22:32 10° NE
USA 267 4.0 03:15:46 10° ENE 03:22:03 52° NNW 03:28:20 10° W
AQUA 3.8 03:19:35 10° NNE 03:24:23 87° ESE 03:28:04 17° SSW
SL-08 R/B 3.6 03:20:46 16° S 03:24:33 55° W 03:29:27 10° NNW
NOSS 7 (D) 4.4 03:22:49 23° SW 03:24:45 78° NW 03:28:11 10° NE
Cosmos 371 Rocket 4.1 03:23:03 10° NNW 03:27:47 52° ENE 03:32:27 10° SE
Sich 1 3.6 03:26:28 11° S 03:30:29 55° E 03:34:45 10° NNE
Cosmos 1633 Rocket 3.8 03:28:06 10° SSE 03:32:17 48° E 03:36:30 10° NNE
Cosmos 1151 Rocket 4.3 03:31:29 10° NNW 03:35:01 25° W 03:37:16 16° SW
Cosmos 2227 Rocket 2.6 03:31:51 16° SW 03:36:20 56° NW 03:41:56 10° NNE
Helios 1A Rocket 4.3 03:33:20 10° N 03:36:56 28° WNW 03:39:46 14° WSW
Cosmos 841 Rocket 4.4 03:33:43 10° NNW 03:38:54 52° ENE 03:44:02 10° SE
Cosmos 1900 4.4 03:36:04 17° SW 03:39:56 76° NW 03:45:01 10° NE
CZ-2D R/B 2.3 03:36:11 10° NNE 03:41:25 68° ESE 03:46:38 10° S
Cosmos 1455 3.0 03:44:18 10° NNW 03:47:52 35° W 03:50:38 15° SSW
Cosmos 468 Rocket 4.0 03:43:24 10° NNW 03:48:34 66° WSW 03:53:40 10° S
Spot 4 Rocket 4.1 03:45:29 10° NNE 03:50:40 89° ESE 03:55:42 11° SSW
Cosmos 2058 4.1 03:48:03 14° SW 03:50:52 29° WNW 03:54:32 10° N
Cosmos 2263 Rocket 4.5 03:50:48 10° SE 03:54:18 17° E 03:57:49 10° ENE
IRS-1C 4.3 03:50:23 10° N 03:55:40 63° WNW 04:00:36 12° SSW
ADEOS Rocket 3.6 03:49:23 10° NNE 03:56:50 81° WNW 04:04:38 10° SSW
Cosmos 1933 4.0 03:55:02 10° N 03:59:07 59° ENE 04:03:09 10° SSE
SL-8 R/B 3.7 03:56:44 10° W 04:01:33 83° S 04:06:21 10° E
Cosmos 1626 3.5 03:58:59 13° SW 04:01:37 26° WNW 04:04:48 10° NNW
Cosmos 332 Rocket 3.8 03:58:57 10° NNW 04:03:46 65° WSW 04:08:34 10° S
IRS-1D 3.7 04:00:18 10° NNE 04:05:40 77° WNW 04:10:57 10° SSW
SL-16 R/B 2.8 04:00:57 10° S 04:06:52 48° W 04:12:51 10° NNW
Cosmos 1763 Rocket 3.5 04:02:05 10° NNW 04:07:21 80° WSW 04:12:32 10° SSE
Cosmos 1707 Rocket 4.3 04:04:10 10° NNW 04:08:12 37° W 04:12:14 10° SSW
DELTA 2 R/B (1) 4.5 04:06:57 10° WSW 04:11:45 30° S 04:16:33 10° ESE
USA 161 1.6 04:11:41 10° SSE 04:13:33 44° ENE 04:15:24 10° N
Cosmos 1814 Rocket 4.2 04:09:11 10° NNW 04:14:25 56° WSW 04:19:39 10° S
Cosmos 1400 Rocket 4.1 04:11:30 10° SSE 04:15:11 39° E 04:18:55 10° NNE
MOS 1 Rocket 3.9 04:11:44 10° NNE 04:16:53 68° E 04:22:14 10° S
Cosmos 1818 3.6 04:12:49 10° NW 04:18:18 87° SW 04:23:44 10° SE
NOSS 3-4 (A) 4.3 04:14:52 10° NW 04:21:16 39° WSW 04:28:03 10° S
NOSS 3-4 (C) 4.3 04:14:57 10° NW 04:21:23 39° WSW 04:28:10 10° S
Cosmos 2242 Rocket 3.8 04:17:06 10° NNW 04:21:30 55° W 04:25:55 10° S
Lacrosse 4 Rocket 1.6 04:20:43 10° SW 04:24:51 68° NW 04:29:08 10° NNE
Cosmos 1869 4.4 04:22:00 10° NNW 04:25:26 27° W 04:28:51 10° SSW
Cosmos 1666 Rocket 4.2 04:22:55 10° SW 04:27:06 41° WNW 04:31:22 10° N
Cosmos 1862 Rocket 3.5 04:23:11 10° NNW 04:27:31 71° W 04:31:49 10° S
BREEZE-M R/B 4.4 04:24:52 10° SW 04:30:39 31° SSE 04:33:55 10° E
SL-24 R/B 4.2 04:30:59 10° NNE 04:34:53 62° E 04:38:30 10° S
